Regional Weather Roundup
Issued by NWS

Home | Current Version | Previous Version | Graphics & Text | Print | Product List | Glossary On
Versions: 1 2 3 4 5 6 7 8 9 10 11 12 13 14 15 16 17 18 19 20 21 22 23 24 25 26 27 28 29 30 31 32 33 34 35 36 37 38 39 40 41 42 43 44 45 46 47 48 49
000
ASUS45 KBOU 241707
RWRCO

WEATHER ROUNDUP FOR COLORADO
NATIONAL WEATHER SERVICE DENVER/BOULDER CO
1000 AM MST SAT JAN 24 2015

NOTE: "FAIR" INDICATES FEW OR NO CLOUDS BELOW 12000 FEET WITH NO
SIGNIFICANT WEATHER AND/OR OBSTRUCTIONS TO VISIBILITY.

COZ001>005-013-030-031-241800-
...NORTHWEST COLORADO...

CITY           SKY/WX    TMP DP  RH WIND       PRES   REMARKS
CRAIG            N/A     11   5  77 MISG      30.41S
HAYDEN         CLOUDY    16   3  57 E13       30.39R WCI   2
MEEKER         CLOUDY    14   6  70 CALM      30.40F
MOUNT WERNER   NOT AVBL
STEAMBOAT SPGS CLOUDY    10   2  72 NW5       30.40S WCI   1
WALDEN         CLOUDY    25  12  58 S9        30.29S WCI  15
$$

COZ006>008-011-241800-
...WEST CENTRAL VALLEYS...

CITY           SKY/WX    TMP DP  RH WIND       PRES   REMARKS
GRAND JUNCTION CLOUDY    29  15  56 S5        30.46R WCI  24
MONTROSE       CLOUDY    26  11  52 CALM      30.47R
EAGLE          CLOUDY    14   9  79 CALM      30.49F
RIFLE          CLOUDY    23  13  65 E3        30.46F
DELTA          CLOUDY    26  15  63 CALM      30.49R
NUCLA          CLOUDY    28  14  54 CALM      30.46R
$$

COZ017>023-064>068-241800-
...SOUTHWEST COLORADO...

CITY           SKY/WX    TMP DP  RH WIND       PRES   REMARKS
DURANGO        SUNNY     26  17  68 E5        30.36S WCI  20
CORTEZ         SUNNY     32  17  54 CALM      30.39S
PAGOSA SPRINGS SUNNY     27  14  57 CALM      30.36S
TELLURIDE      NOT AVBL
WOLF CREEK PAS NOT AVBL
$$

COZ009-010-012-014-032>034-037-058>063-241800-
...CENTRAL COLORADO...

CITY           SKY/WX    TMP DP  RH WIND       PRES   REMARKS
ASPEN          CLOUDY    17   8  67 CALM      30.40R
BUENA VISTA    CLOUDY    26  13  57 SE5       30.28S WCI  21
COPPER MTN     CLOUDY    23   1  39 W21G29    30.35R WCI   8
BERTHOUD PASS  FAIR      12   7  79 NW38G46   30.26S HAZE    WCI -11
COTTONWOOD PAS CLOUDY    34   3  27 SE5       30.28S WCI  30
GUNNISON       CLOUDY    -2 -11  65 SE3       30.51R
KREMMLING      CLOUDY     3  -4  72 CALM      30.45R
LEADVILLE      CLOUDY    22   9  57 N12       30.31F WCI  10
MONARCH PASS   CLOUDY    19   5  53 MISG      30.43R
SALIDA         CLOUDY    30  12  46 NW12      30.35S WCI  21
SUNLIGHT       CLOUDY    27  14  59 W5        30.39F WCI  21
WILKERSON PASS CLOUDY    28  -8  20 NW20G31   30.29R WCI  15
$$

COZ069>075-241800-
...SAN LUIS VALLEY/SANGRE DE CRISTO MOUNTAINS...

CITY           SKY/WX    TMP DP  RH WIND       PRES   REMARKS
ALAMOSA        PTSUNNY   19   8  62 CALM      30.37R
LA VETA PASS   NOT AVBL
SAGUACHE       CLOUDY    14   7  73 SE10      30.34F WCI   1
$$

COZ035-036-038>040-241800-
...NORTHERN COLORADO FRONT RANGE...

CITY           SKY/WX    TMP DP  RH WIND       PRES   REMARKS
DENVER INTL AP CLOUDY    42  17  36 SW10      30.06R
DMNS CITY PARK   N/A     42  12  30 S6        30.06R
AURORA         PTSUNNY   42  14  32 SW13      30.07S
FRONT RANGE AP NOT AVBL
ERIE MUNI ARPT CLOUDY    49  15  25 NW3       30.04R
BOULDER MUN AP CLOUDY    52   9  17 W5        30.04R
CENTENNIAL     CLOUDY    44  12  27 SW14      30.08S
BROOMFIELD     PTSUNNY   50   7  17 W26G32    30.07R
FORT COLLINS   CLOUDY    32  23  69 CALM      30.04F
LONGMONT       CLOUDY    38  21  50 CALM      30.06S
$$

COZ041-046-047-076>085-087-088-241800-
...PIKES PEAK/PALMER DIVIDE AND SOUTHERN FOOTHILLS...

CITY           SKY/WX    TMP DP  RH WIND       PRES   REMARKS
COLO. SPRINGS  CLOUDY    46  11  24 N8        30.10F
A. F. ACADEMY  CLOUDY    39   9  28 NE7       30.10F
ELLICOTT       CLOUDY   N/A N/A N/A N8        30.09S
FALCON         CLOUDY    42  12  29 NW10      30.12F
FORT CARSON    CLOUDY    40  18  42 W5        30.08F
LIMON          CLOUDY    39  23  52 NW6       30.06F
MONUMENT HILL  CLOUDY    36  14  41 SW10      30.10F
TRINIDAD       SUNNY     37  22  54 SW6       30.13S
$$

COZ042>045-048>051-090-091-241800-
...NORTHEAST COLORADO...

CITY           SKY/WX    TMP DP  RH WIND       PRES   REMARKS
GREELEY ARPT   CLOUDY    28  19  69 CALM      30.03S
AKRON          CLOUDY    37  24  59 SW8       30.02F
BURLINGTON     PTSUNNY   45  30  55 W6        30.05S
WRAY           CLOUDY    44  29  55 W12       30.01F
STERLING       CLOUDY    34  30  86 SW7       30.03S WCI  28
HOLYOKE        CLOUDY    45  27  49 W14       30.00F
FORT MORGAN    CLOUDY    32  24  70 W9        30.03F WCI  24
$$

COZ086-089-092>099-241800-
...SOUTHEAST COLORADO...

CITY           SKY/WX    TMP DP  RH WIND       PRES   REMARKS
PUEBLO         PTSUNNY   38  24  57 CALM      30.11S
LA JUNTA       SUNNY     40  25  55 W9        30.11F
LAMAR          SUNNY     42  25  50 W16       30.09F
SPRINGFIELD      N/A     45  26  47 W8        30.12R
$$


USA.gov is the U.S. government's official web portal to all federal, state and local government web resources and services.